Miscellaneous Local Product
Issued by NWS North Platte, NE

Home | Current Version | Previous Version | Graphics & Text | Print | Product List | Glossary On
Versions: 1 2 3 4 5 6 7 8 9 10 11 12 13 14 15 16 17 18 19 20 21 22 23 24 25 26 27 28 29 30 31 32 33 34 35 36 37 38 39 40 41 42 43 44 45 46 47 48 49 50
000
AXUS43 KLBF 190410
MISLBF


WESTERN AND NORTH CENTRAL NEBRASKA HOURLY WEATHER ROUNDUP
NATIONAL WEATHER SERVICE NORTH PLATTE NE
1100 PM CDT THU SEP 18 2014

***STATIONS NOT REPORTING VARIABLES SUCH AS SKY/WEATHER OR
PRESSURE ARE PROVIDED BY THE NEBRASKA DEPARTMENT OF
ROADS...RAWS...AND APRS NETWORKS...AND ARE NOT UNDER
NATIONAL WEATHER SERVICE QUALITY CONTROL***

...OBSERVATIONS IN AND NEAR THE EASTERN PANHANDLE OF NEBRASKA...

CITY           SKY/WX    TMP DP  RH WIND       PRES   REMARKS
PINE RIDGE     CLEAR     70  62  76 S18G29    29.78F
CHADRON        CLEAR     74  62  66 S22G33    29.77S
ALLIANCE       CLEAR     63  61  93 S14       29.87S
SIDNEY         CLEAR     66  61  84 SE16      29.93R
WHITECLAY        N/A     69  61  76 S15         N/A
RUSHVILLE        N/A     64  63  94 SW14        N/A
LISCO            N/A     67  62  85 E9          N/A
BIG SPRINGS      N/A     64  61  91 E3          N/A
$$

...OBSERVATIONS IN NORTH CENTRAL NEBRASKA...

CITY           SKY/WX    TMP DP  RH WIND       PRES   REMARKS
VALENTINE      PTCLDY    64  61  90 S10       29.84S
THEDFORD       MOCLDY    65  62  87 S9        29.90S
AINSWORTH      CLOUDY    66  61  85 S13       29.85F
O`NEILL        CLOUDY    70  66  87 S16       29.88F
ORD            CLEAR     65  63  93 SE5       29.89S
BROKEN BOW     CLOUDY    67  64  90 SE5       29.90F FOG
SPRINGVIEW       N/A     69  63  81 S3G13       N/A
ROSE             N/A     71  70  96 E14         N/A
NEWPORT          N/A     71  67  88 S20         N/A
COMSTOCK         N/A     66  66 100 CALM        N/A
CHAMBERS         N/A     67  64  90 S3          N/A
$$

...OBSERVATIONS IN SOUTHWEST NEBRASKA AND FAR NORTHEAST COLORADO...

CITY           SKY/WX    TMP DP  RH WIND       PRES   REMARKS
WRAY           FAIR      65  65 100 E6        29.92S
HOLYOKE        FAIR      63  61  94 SE7       29.92S
IMPERIAL       CLEAR     61  59  93 SE9       29.91S
OGALLALA       PTCLDY    59  58  97 E5        29.90S FOG
NORTH PLATTE   CLEAR     57  56  96 CALM      29.89F
MCCOOK         CLEAR     61  60  97 CALM      29.90S FOG
LEXINGTON      FOG       59  58  97 SE3       29.89F VSB 1/4
PAXTON           N/A     59  57  92 CALM        N/A
SUTHERLAND       N/A     53  51  92 CALM        N/A
BRADY            N/A     60  58  92 CALM        N/A
GOTHENBURG       N/A     63  58  84 CALM        N/A
CALLAWAY         N/A     62  60  95 SE5         N/A
$$

...SOME WEATHER OBSERVATIONS FROM AROUND THE REGION...

CITY           SKY/WX    TMP DP  RH WIND       PRES   REMARKS
DENVER         PTCLDY    69  35  28 S14       29.97R
LARAMIE        CLEAR     63  33  32 S10       30.06S
CHEYENNE       CLEAR     68  49  50 SE15      30.00F
SCOTTSBLUFF    CLEAR     67  62  84 E12       29.86S
RAPID CITY     MOCLDY    71  54  54 S10       29.72F
PIERRE         CLEAR     68  60  75 SE12      29.72F
WINNER         FAIR      68  62  81 S18G29    29.78F
SIOUX FALLS    PTCLDY    64  55  72 S15G24    29.91S
OMAHA          PTCLDY    63  57  81 SE15      29.98S
GRAND ISLAND   MOCLDY    66  63  90 SE12      29.92R
KANSAS CITY    CLEAR     62  60  93 SE9       30.02S
WICHITA        CLEAR     69  63  81 SE9       29.97F
HAYS           CLEAR     72  61  68 SE9       29.92R
LIBERAL        CLEAR     70  55  60 S9        30.00S
GOODLAND       CLEAR     71  54  54 S14       29.94S
$$



USA.gov is the U.S. government's official web portal to all federal, state and local government web resources and services.